Starlink 32556

operational
NORAD ID: 61858 Int'l Des: 2024-202 Owner: SPXS Country: US Constellation: starlink
LEOCIRCULAR

Starlink 32556について

説明を読み込み中...

リアルタイム位置

3D地球を読み込み中...

次回通過

高度履歴

Altitude vs Time

uPlot chart will show altitude changes over time

軌道要素

1 61858U 24202P 25353.62511697 .00000918 00000-0 42865-4 0 9990
2 61858 43.0018 330.0831 0001032 269.6602 90.4131 15.27576475 63096
Epoch: Dec 19, 2025 • Age: 7 hours

現在のステータス

高度 484.7 km
速度 7.63 km/s
衛星直下点 32.82°N, 48.73°E
打ち上げ日 Nov 7, 2024
運用期間 1.1 years
タイプ internet

技術仕様

分類 Payload
質量 730.00 kg
乾燥質量 700.00 kg
総質量 730.00 kg
長さ 0.30 m
直径 4.10 m
スパン 29.00 m
形状 Box + pan
製造者 SPXS
バスタイプ Starlink V2M
フェーズステータス In Orbit
所有者/国 SPXS/US

大規模コンステレーション

Loading constellations...